Terminal Aerodrome Forecast
Issued by NWS

Home | Current Version | Previous Version | Text Only | Print | Product List | Glossary On
Versions: 1 2 3 4 5 6 7 8 9 10 11 12 13 14 15 16 17 18 19 20 21 22 23 24 25 26 27 28 29 30 31 32
000
FTUS43 KEAX 240500
TAFSTJ
TAF
KSTJ 240527Z 2406/2506 31015G25KT P6SM BKN060
     FM241500 30020G30KT P6SM BKN035
     FM250000 30010KT P6SM FEW040=

USA.gov is the U.S. government's official web portal to all federal, state and local government web resources and services.